Location: Ebendorf
(52.1827°N, 11.5706°E)
Time: 09:45:14
(UTC+00:00)

Lacrosse 5 - Pass Details

Date: 15 May 2021
Orbit: 715 x 724 km, 57.0° (Epoch: 15 June)

Event Time Altitude Azimuth Distance (km) Brightness Sun altitude
Rises 02:17:26 0° 271° (W) 3,122 4.8 -8.1°
Reaches altitude 10° 02:19:53 10° 277° (W) 2,204 4.0 -7.8°
Maximum altitude 02:24:49 50° 353° (N) 912 2.7 -7.3°
Drops below altitude 10° 02:29:47 10° 70° (ENE) 2,212 5.7 -6.8°
Sets 02:32:15 0° 75° (ENE) 3,134 6.4 -6.5°
